$DATE,$TIME,DM0600B,DM0602B,DM0604B,DM0614B,DM0616B,DM0618B,DM0624B,DM0628B,DM0630B,DM0634B,DM0606B,DM0608B,DM0610B
06/11/94,00:00:00,33,37,38,0,0,0,0,61,26,0,0,0,0
06/11/94,00:05:00,41,44,37,0,0,0,0,60,26,0,0,0,0
06/11/94,00:10:00,2,42,26,0,0,0,0,61,26,0,0,0,0
06/11/94,00:15:00,35,27,20,0,0,0,0,60,26,0,0,0,0
06/11/94,00:20:00,40,26,25,0,0,0,0,61,26,0,0,0,0
06/11/94,00:25:00,0,15,23,0,0,0,0,61,26,0,0,0,0
06/11/94,00:30:00,26,55,36,0,0,0,0,61,26,0,0,0,0
06/11/94,00:35:00,19,15,14,0,0,0,0,61,26,0,0,0,0
06/11/94,00:40:00,31,51,8,0,0,0,0,61,26,0,0,0,0
06/11/94,00:45:00,0,36,46,0,0,0,0,61,26,0,0,0,0
06/11/94,00:50:00,0,22,23,0,0,0,0,60,26,0,0,0,0
06/11/94,00:55:00,35,33,0,0,0,0,0,60,26,0,0,0,0
06/11/94,01:00:00,51,51,0,0,0,0,0,61,26,0,0,0,0
06/11/94,01:05:00,8,29,63,0,0,0,0,61,26,0,0,0,0
06/11/94,01:10:00,55,46,5,0,0,0,0,61,26,0,0,0,0
06/11/94,01:15:00,1,27,51,0,0,0,0,60,26,0,0,0,0
06/11/94,01:20:00,35,55,0,0,0,0,0,61,26,0,0,0,0
06/11/94,01:25:00,14,46,37,0,0,0,0,61,26,0,0,0,0
06/11/94,01:30:00,45,46,2,0,0,0,0,61,26,0,0,0,0
06/11/94,01:35:00,32,46,32,0,0,0,0,61,48,0,0,0,0
06/11/94,01:40:00,17,9,3,0,0,0,0,61,26,0,0,0,0
06/11/94,01:45:00,2,34,38,0,0,0,0,61,26,0,0,0,0
06/11/94,01:50:00,26,39,60,0,0,0,0,61,26,0,0,0,0
06/11/94,01:55:00,27,44,14,0,0,0,0,61,26,0,0,0,0
06/11/94,02:00:00,2,0,0,0,0,0,0,61,26,0,0,0,0
06/11/94,02:05:00,27,29,15,0,0,0,0,61,26,0,0,0,0
06/11/94,02:10:00,30,44,26,0,0,0,0,61,26,0,0,0,0
06/11/94,02:15:00,39,39,13,0,0,0,0,61,26,0,0,0,0
06/11/94,02:20:00,3,23,47,0,0,0,0,61,26,0,0,0,0
06/11/94,02:25:00,2,24,26,0,0,0,0,61,26,0,0,0,0
06/11/94,02:30:00,16,11,43,0,0,0,0,61,26,0,0,0,0
06/11/94,02:35:00,24,10,32,0,0,0,0,61,26,0,0,0,0
06/11/94,02:40:00,24,22,32,0,0,0,0,61,26,0,0,0,0
06/11/94,02:45:00,23,35,5,0,0,0,0,61,26,0,0,0,0
06/11/94,02:50:00,30,42,18,0,0,0,0,61,26,0,0,0,0
06/11/94,02:55:00,15,8,13,0,0,0,0,61,26,0,0,0,0
06/11/94,03:00:00,0,46,0,0,0,0,0,61,26,0,0,0,0
06/11/94,03:05:00,24,37,45,0,0,0,0,61,26,0,0,0,0
06/11/94,03:10:00,0,0,12,0,0,0,0,61,26,0,0,0,0
06/11/94,03:15:00,0,8,16,0,0,0,0,61,26,0,0,0,0
06/11/94,03:20:00,0,0,0,0,0,0,0,60,60,0,0,0,0
06/11/94,03:25:00,6,0,0,0,0,0,0,61,26,0,0,0,0
06/11/94,03:30:00,0,0,4,0,0,0,0,61,26,0,0,0,0
06/11/94,03:35:00,0,15,0,0,0,0,0,61,26,0,0,0,0
06/11/94,03:40:00,0,0,15,0,0,0,0,60,26,0,0,0,0
06/11/94,03:45:00,0,0,45,0,0,0,0,61,26,0,0,0,0
06/11/94,03:50:00,3,22,15,0,0,0,0,61,26,0,0,0,0
06/11/94,03:55:00,0,14,0,0,0,0,0,61,26,0,0,0,0
06/11/94,04:00:00,0,13,0,0,0,0,0,61,26,0,0,0,0
06/11/94,04:05:00,52,46,0,0,0,0,0,61,26,0,0,0,0
06/11/94,04:10:00,13,0,1,0,0,0,0,61,26,0,0,0,0
06/11/94,04:15:00,32,19,4,0,0,0,0,61,26,0,0,0,0
06/11/94,04:20:00,43,19,9,0,0,0,0,61,26,0,0,0,0
06/11/94,04:25:00,0,0,0,0,0,0,0,60,26,0,0,0,0
06/11/94,04:30:00,0,0,0,0,0,0,0,61,26,0,0,0,0
06/11/94,04:35:00,0,5,0,0,0,0,0,62,26,0,0,0,0
06/11/94,04:40:00,0,0,3,0,0,0,0,61,26,0,0,0,0
06/11/94,04:45:00,0,0,3,0,0,0,0,61,26,0,0,0,0
06/11/94,04:50:00,0,1,0,0,0,0,0,61,26,0,0,0,0
06/11/94,04:55:00,8,0,11,0,0,0,0,62,26,0,0,0,0
06/11/94,05:00:00,0,4,0,0,0,0,0,61,26,0,0,0,0
06/11/94,05:05:00,0,0,3,0,0,0,0,61,26,0,0,0,0
06/11/94,05:10:00,0,0,1,0,0,0,0,61,26,0,0,0,0
06/11/94,05:15:00,0,0,3,0,0,0,0,61,26,0,0,0,0
06/11/94,05:20:00,0,0,11,0,0,0,0,61,26,0,0,0,0
06/11/94,05:25:00,0,0,0,0,0,0,0,62,26,0,0,0,0
06/11/94,05:30:00,0,0,0,0,0,0,0,61,26,0,0,0,0
06/11/94,05:35:00,0,7,0,0,0,0,0,61,26,0,0,0,0
06/11/94,05:40:00,0,0,0,0,0,0,0,61,26,0,0,0,0
06/11/94,05:45:00,0,0,0,0,0,0,0,61,26,0,0,0,0
06/11/94,05:50:00,0,0,0,0,0,0,0,60,26,0,0,0,0
06/11/94,05:55:00,0,0,0,0,0,0,0,60,26,0,0,0,0
06/11/94,06:00:00,0,0,0,0,0,0,0,61,26,0,0,0,0
06/11/94,06:05:00,0,0,0,0,0,0,0,61,26,0,0,0,0
06/11/94,06:10:00,0,0,0,0,0,0,0,60,26,0,0,0,0
06/11/94,06:15:00,0,0,0,0,0,0,0,61,26,0,0,0,0
06/11/94,06:20:00,0,0,0,0,0,0,0,60,26,0,0,0,0
06/11/94,06:25:00,0,0,0,0,0,0,0,61,26,0,0,0,0
06/11/94,06:30:00,0,0,0,0,0,0,0,61,26,0,0,0,0
06/11/94,06:35:00,0,0,0,0,0,0,0,61,26,0,0,0,0
06/11/94,06:40:00,0,0,0,0,0,0,0,61,26,0,0,0,0
06/11/94,06:45:00,0,0,0,0,0,0,0,60,26,0,0,0,0
06/11/94,06:50:00,0,0,0,0,0,0,0,61,26,0,0,0,0
06/11/94,06:55:00,0,0,0,0,0,0,0,61,26,0,0,0,0
06/11/94,07:00:00,0,0,0,0,0,0,0,60,26,0,0,0,0
06/11/94,07:05:00,0,0,0,0,0,0,0,61,26,0,0,0,0
06/11/94,07:10:00,0,0,0,0,0,0,0,61,26,0,0,0,0
06/11/94,07:15:00,0,0,0,0,0,0,0,61,26,0,0,0,0
06/11/94,07:20:00,0,0,0,0,0,0,0,60,26,0,0,0,0
06/11/94,07:25:00,0,0,0,0,0,0,0,61,26,0,0,0,0
06/11/94,07:30:00,0,0,0,0,0,0,0,61,26,0,0,0,0
06/11/94,07:35:00,0,0,0,0,0,0,0,60,26,0,0,0,0
06/11/94,07:40:00,0,0,0,0,0,0,0,61,26,0,0,0,0
06/11/94,07:45:00,0,0,0,0,0,0,0,60,26,0,0,0,0
06/11/94,07:50:00,0,0,0,0,0,0,0,61,26,0,0,0,0
06/11/94,07:55:00,0,0,0,0,0,0,0,61,26,0,0,0,0
06/11/94,08:00:00,0,0,0,0,0,0,0,60,26,0,0,0,0
06/11/94,08:05:00,0,0,0,0,0,0,0,61,26,0,0,0,0
06/11/94,08:10:00,0,0,0,0,0,0,0,61,26,0,0,0,0
06/11/94,08:15:00,0,0,0,0,0,0,0,61,26,0,0,0,0
06/11/94,08:20:00,0,0,0,0,0,0,0,61,26,0,0,0,0
06/11/94,08:25:00,0,0,0,0,0,0,0,60,26,0,0,0,0
06/11/94,08:30:00,0,0,0,0,0,0,0,61,26,0,0,0,0
06/11/94,08:35:00,0,0,4,0,0,0,0,61,26,0,0,0,0
06/11/94,08:40:00,0,0,18,0,0,0,0,61,26,0,0,0,0
06/11/94,08:45:00,0,0,19,0,0,0,0,60,26,0,0,0,0
06/11/94,08:50:00,0,0,0,0,0,0,0,127,26,0,0,0,0
06/11/94,08:55:00,0,0,4,0,0,0,0,61,26,0,0,0,0
06/11/94,09:00:00,0,0,0,0,0,0,0,62,26,0,0,0,0
06/11/94,09:05:00,0,0,2,0,0,0,0,61,26,0,0,0,0
06/11/94,09:10:00,0,0,2,0,0,0,0,61,26,0,0,0,0
06/11/94,09:15:00,0,20,2,0,0,0,0,61,26,0,0,0,0
06/11/94,09:20:00,0,0,0,0,0,0,0,61,26,0,0,0,0
06/11/94,09:25:00,0,0,2,0,0,0,0,61,26,0,0,0,0
06/11/94,09:30:00,0,0,1,0,0,0,0,61,26,0,0,0,0
06/11/94,09:35:00,0,0,0,0,0,0,0,61,26,0,0,0,0
06/11/94,09:40:00,0,0,0,0,0,0,0,61,26,0,0,0,0
06/11/94,09:45:00,0,0,0,0,0,0,0,60,26,0,0,0,0
06/11/94,09:50:00,0,0,12,0,0,0,0,61,26,0,0,0,0
06/11/94,09:55:00,0,0,1,0,0,0,0,61,26,0,0,0,0
06/11/94,10:00:00,0,0,1,0,0,0,0,61,26,0,0,0,0
06/11/94,10:05:00,0,0,0,0,0,0,0,64,26,0,0,0,0
06/11/94,10:10:00,0,0,0,0,0,0,0,61,26,0,0,0,0
06/11/94,10:15:00,0,0,0,0,0,0,0,60,26,0,0,0,0
06/11/94,10:20:00,0,0,0,0,0,0,0,61,26,0,0,0,0
06/11/94,10:25:00,0,0,0,0,0,0,0,61,26,0,0,0,0
06/11/94,10:30:00,0,0,0,0,0,0,0,61,26,0,0,0,0
06/11/94,10:35:00,0,0,0,0,0,0,0,61,26,0,0,0,0
06/11/94,10:40:00,0,0,0,0,0,0,0,61,43,0,0,0,0
06/11/94,10:45:00,0,0,0,0,0,0,0,61,26,0,0,0,0
06/11/94,10:50:00,0,0,0,0,0,0,0,60,26,0,0,0,0
06/11/94,10:55:00,0,0,0,0,0,0,0,61,26,0,0,0,0
06/11/94,11:00:00,0,0,0,0,0,0,0,60,26,0,0,0,0
06/11/94,11:05:00,0,0,0,0,0,0,0,61,26,0,0,0,0
06/11/94,11:10:00,0,0,0,0,0,0,0,61,26,0,0,0,0
06/11/94,11:15:00,0,0,0,0,0,0,0,60,26,0,0,0,0
06/11/94,11:20:00,0,0,0,0,0,0,0,61,26,0,0,0,0
06/11/94,11:25:00,0,0,0,0,0,0,0,61,26,0,0,0,0
06/11/94,11:30:00,0,0,0,0,0,0,0,61,26,0,0,0,0
06/11/94,11:35:00,0,0,0,0,0,0,0,61,26,0,0,0,0
06/11/94,11:40:00,0,0,0,0,0,0,0,61,26,0,0,0,0
06/11/94,11:45:00,0,0,0,0,0,0,0,61,26,0,0,0,0
06/11/94,11:50:00,0,0,0,0,0,0,0,61,26,0,0,0,0
06/11/94,11:55:00,0,0,0,0,0,0,0,61,26,0,0,0,0
06/11/94,12:00:00,0,0,0,0,0,0,0,61,26,0,0,0,0
06/11/94,12:05:00,0,0,0,0,0,0,0,61,26,0,0,0,0
06/11/94,12:10:00,0,0,16,0,0,0,0,61,26,0,0,0,0
06/11/94,12:15:00,0,0,14,0,0,0,0,130,26,0,0,0,0
06/11/94,12:20:00,0,0,0,0,0,0,0,61,26,0,0,0,0
06/11/94,12:25:00,0,0,0,0,0,0,0,61,26,0,0,0,0
06/11/94,12:30:00,0,1,0,0,0,0,0,61,26,0,0,0,0
06/11/94,12:35:00,0,6,0,0,0,0,0,62,26,0,0,0,0
06/11/94,12:40:00,0,3,0,0,0,0,0,61,26,0,0,0,0
06/11/94,12:45:00,0,2,0,0,0,0,0,61,26,0,0,0,0
06/11/94,12:50:00,0,0,0,0,0,0,0,61,26,0,0,0,0
06/11/94,12:55:00,0,0,0,0,0,0,0,61,26,0,0,0,0
06/11/94,13:00:00,0,7,0,0,0,0,0,61,26,0,0,0,0
06/11/94,13:05:00,0,0,1,0,0,0,0,62,26,0,0,0,0
06/11/94,13:10:00,0,10,0,0,0,0,0,61,26,0,0,0,0
06/11/94,13:15:00,0,0,15,0,0,0,0,61,26,0,0,0,0
06/11/94,13:20:00,0,0,11,0,0,0,0,62,26,0,0,0,0
06/11/94,13:25:00,0,0,5,0,0,0,0,61,26,0,0,0,0
06/11/94,13:30:00,0,10,0,0,0,0,0,61,26,0,0,0,0
06/11/94,13:35:00,0,0,1,0,0,0,0,61,26,0,0,0,0
06/11/94,13:40:00,0,0,2,0,0,0,0,61,26,0,0,0,0
06/11/94,13:45:00,0,0,0,0,0,0,0,61,26,0,0,0,0
06/11/94,13:50:00,0,0,2,0,0,0,0,62,26,0,0,0,0
06/11/94,13:55:00,0,0,3,0,0,0,0,61,26,0,0,0,0
06/11/94,14:00:00,0,0,13,0,0,0,0,61,26,0,0,0,0
06/11/94,14:05:00,0,0,0,0,0,0,0,61,26,0,0,0,0
06/11/94,14:10:00,0,0,4,0,0,0,0,61,26,0,0,0,0
06/11/94,14:15:00,0,0,4,0,0,0,0,61,26,0,0,0,0
06/11/94,14:20:00,1,26,0,0,0,0,0,61,26,0,0,0,0
06/11/94,14:25:00,24,24,10,0,0,0,0,61,26,0,0,0,0
06/11/94,14:30:00,10,17,0,0,0,0,0,61,26,0,0,0,0
06/11/94,14:35:00,8,0,14,0,0,0,0,61,26,0,0,0,0
06/11/94,14:40:00,2,20,0,0,0,0,0,61,26,0,0,0,0
06/11/94,14:45:00,0,3,0,0,0,0,0,62,26,0,0,0,0
06/11/94,14:50:00,0,0,3,0,0,0,0,61,26,0,0,0,0
06/11/94,14:55:00,10,0,19,0,0,0,0,61,26,0,0,0,0
06/11/94,15:00:00,0,14,0,0,0,0,0,61,26,0,0,0,0
06/11/94,15:05:00,0,0,16,0,0,0,0,61,26,0,0,0,0
06/11/94,15:10:00,0,9,0,0,0,0,0,61,26,0,0,0,0
06/11/94,15:15:00,0,0,0,0,0,0,0,61,26,0,0,0,0
06/11/94,15:20:00,0,0,6,0,0,0,0,61,26,0,0,0,0
06/11/94,15:25:00,0,0,12,0,0,0,0,61,26,0,0,0,0
06/11/94,15:30:00,0,12,0,0,0,0,0,61,26,0,0,0,0
06/11/94,15:35:00,0,0,17,0,0,0,0,61,26,0,0,0,0
06/11/94,15:40:00,0,0,0,0,0,0,0,61,26,0,0,0,0
06/11/94,15:45:00,0,3,0,0,0,0,0,61,26,0,0,0,0
06/11/94,15:50:00,0,0,0,0,0,0,0,61,26,0,0,0,0
06/11/94,15:55:00,0,0,0,0,0,0,0,61,26,0,0,0,0
06/11/94,16:00:00,0,0,0,0,0,0,0,61,26,0,0,0,0
06/11/94,16:05:00,0,0,0,0,0,0,0,61,26,0,0,0,0
06/11/94,16:10:00,0,0,0,0,0,0,0,60,26,0,0,0,0
06/11/94,16:15:00,0,0,0,0,0,0,0,61,26,0,0,0,0
06/11/94,16:20:00,0,0,0,0,0,0,0,61,26,0,0,0,0
06/11/94,16:25:00,0,0,0,0,0,0,0,60,26,0,0,0,0
06/11/94,16:30:00,0,0,0,0,0,0,0,61,26,0,0,0,0
06/11/94,16:35:00,0,0,0,0,0,0,0,61,26,0,0,0,0
06/11/94,16:40:00,0,0,0,0,0,0,0,61,26,0,0,0,0
06/11/94,16:45:00,0,0,0,0,0,0,0,60,26,0,0,0,0
06/11/94,16:50:00,0,0,0,0,0,0,0,61,26,0,0,0,0
06/11/94,16:55:00,0,0,16,0,0,0,0,61,26,0,0,0,0
06/11/94,17:00:00,0,0,11,0,0,0,0,61,26,0,0,0,0
06/11/94,17:05:00,0,0,15,0,0,0,0,61,26,0,0,0,0
06/11/94,17:10:00,0,0,15,0,0,0,0,60,26,0,0,0,0
06/11/94,17:15:00,0,0,11,0,0,0,0,61,26,0,0,0,0
06/11/94,17:20:00,0,0,0,0,0,0,0,61,26,0,0,0,0
06/11/94,17:25:00,0,0,0,0,0,0,0,60,26,0,0,0,0
06/11/94,17:30:00,0,0,0,0,0,0,0,61,26,0,0,0,0
06/11/94,17:35:00,0,0,8,0,0,0,0,61,26,0,0,0,0
06/11/94,17:40:00,0,0,23,0,0,0,0,61,26,0,0,0,0
06/11/94,17:45:00,0,0,22,0,0,0,0,60,26,0,0,0,0
06/11/94,17:50:00,0,0,25,0,0,0,0,61,26,0,0,0,0
06/11/94,17:55:00,0,0,19,0,0,0,0,61,26,0,0,0,0
06/11/94,18:00:00,0,0,20,0,0,0,0,61,26,0,0,0,0
06/11/94,18:05:00,0,0,13,0,0,0,0,61,26,0,0,0,0
06/11/94,18:10:00,0,0,19,0,0,0,0,60,26,0,0,0,0
06/11/94,18:15:00,0,0,22,0,0,0,0,61,26,0,0,0,0
06/11/94,18:20:00,0,0,19,0,0,0,0,61,26,0,0,0,0
06/11/94,18:25:00,0,0,20,0,0,0,0,61,26,0,0,0,0
06/11/94,18:30:00,0,0,0,0,0,0,0,60,26,0,0,0,0
06/11/94,18:35:00,0,0,17,0,0,0,0,61,26,0,0,0,0
06/11/94,18:40:00,0,0,20,0,0,0,0,61,26,0,0,0,0
06/11/94,18:45:00,0,0,18,0,0,0,0,61,26,0,0,0,0
06/11/94,18:50:00,0,0,17,0,0,0,0,61,26,0,0,0,0
06/11/94,18:55:00,0,0,21,0,0,0,0,61,26,0,0,0,0
06/11/94,19:00:00,0,0,16,0,0,0,0,61,26,0,0,0,0
06/11/94,19:05:00,0,0,17,0,0,0,0,61,26,0,0,0,0
06/11/94,19:10:00,0,0,0,0,0,0,0,61,26,0,0,0,0
06/11/94,19:15:00,0,0,0,0,0,0,0,61,26,0,0,0,0
06/11/94,19:20:00,0,0,0,0,0,0,0,61,26,0,0,0,0
06/11/94,19:25:00,0,0,0,0,0,0,0,61,26,0,0,0,0
06/11/94,19:30:00,0,0,0,0,0,0,0,61,26,0,0,0,0
06/11/94,19:35:00,0,0,0,0,0,0,0,61,26,0,0,0,0
06/11/94,19:40:00,0,0,0,0,0,0,0,61,26,0,0,0,0
06/11/94,19:45:00,0,0,0,0,0,0,0,61,26,0,0,0,0
06/11/94,19:50:00,0,0,0,0,0,0,0,61,26,0,0,0,0
06/11/94,19:55:00,0,0,0,0,0,0,0,61,26,0,0,0,0
06/11/94,20:00:00,0,0,0,0,0,0,0,61,26,0,0,0,0
06/11/94,20:05:00,0,0,0,0,0,0,0,60,26,0,0,0,0
06/11/94,20:10:00,0,0,0,0,0,0,0,61,26,0,0,0,0
06/11/94,20:15:00,0,0,0,0,0,0,0,61,26,0,0,0,0
06/11/94,20:20:00,0,0,0,0,0,0,0,61,26,0,0,0,0
06/11/94,20:25:00,0,0,0,0,0,0,0,61,26,0,0,0,0
06/11/94,20:30:00,0,0,0,0,0,0,0,61,26,0,0,0,0
06/11/94,20:35:00,0,0,0,0,0,0,0,60,26,0,0,0,0
06/11/94,20:40:00,0,0,0,0,0,0,0,61,26,0,0,0,0
06/11/94,20:45:00,0,0,0,0,0,0,0,61,26,0,0,0,0
06/11/94,20:50:00,0,0,0,0,0,0,0,61,26,0,0,0,0
06/11/94,20:55:00,0,0,0,0,0,0,0,61,26,0,0,0,0
06/11/94,21:00:00,0,0,0,0,0,0,0,61,26,0,0,0,0
06/11/94,21:05:00,0,0,0,0,0,0,0,61,26,0,0,0,0
06/11/94,21:10:00,53,35,0,0,0,0,0,61,26,0,0,0,0
06/11/94,21:15:00,0,2,1,0,0,0,0,61,26,0,0,0,0
06/11/94,21:20:00,0,7,0,0,0,0,0,62,26,0,0,0,0
06/11/94,21:25:00,0,15,0,0,0,0,0,61,26,0,0,0,0
06/11/94,21:30:00,0,0,6,0,0,0,0,61,26,0,0,0,0
06/11/94,21:35:00,0,16,0,0,0,0,0,61,26,0,0,0,0
06/11/94,21:40:00,0,20,0,0,0,0,0,62,26,0,0,0,0
06/11/94,21:45:00,0,0,0,0,0,0,0,60,26,0,0,0,0
06/11/94,21:50:00,0,0,30,0,0,0,0,61,26,0,0,0,0
06/11/94,21:55:00,79,63,74,0,0,0,0,61,26,0,0,0,0
06/11/94,22:00:00,48,39,61,0,0,0,0,61,26,0,0,0,0
06/11/94,22:05:00,61,48,68,0,0,0,0,60,26,0,0,0,0
06/11/94,22:10:00,1,0,0,0,0,0,0,60,26,0,0,0,0
06/11/94,22:15:00,0,4,0,0,0,0,0,61,26,0,0,0,0
06/11/94,22:20:00,0,0,0,0,0,0,0,61,26,0,0,0,0
06/11/94,22:25:00,0,0,1,0,0,0,0,61,26,0,0,0,0
06/11/94,22:30:00,0,0,0,0,0,0,0,62,26,0,0,0,0
06/11/94,22:35:00,0,18,0,0,0,0,0,61,26,0,0,0,0
06/11/94,22:40:00,76,60,62,0,0,0,0,60,26,0,0,0,0
06/11/94,22:45:00,31,51,0,0,0,0,0,61,26,0,0,0,0
06/11/94,22:50:00,22,39,49,0,0,0,0,61,26,0,0,0,0
06/11/94,22:55:00,34,35,0,0,0,0,0,61,26,0,0,0,0
06/11/94,23:00:00,10,29,4,0,0,0,0,61,26,0,0,0,0
06/11/94,23:05:00,37,35,46,0,0,0,0,61,26,0,0,0,0
06/11/94,23:10:00,3,28,14,0,0,0,0,61,26,0,0,0,0
06/11/94,23:15:00,18,53,9,0,0,0,0,61,26,0,0,0,0
06/11/94,23:20:00,0,41,15,0,0,0,0,61,26,0,0,0,0
06/11/94,23:25:00,19,39,19,0,0,0,0,61,26,0,0,0,0
06/11/94,23:30:00,20,31,33,0,0,0,0,61,26,0,0,0,0
06/11/94,23:35:00,46,54,28,0,0,0,0,61,58,0,0,0,0
06/11/94,23:40:00,24,28,39,0,0,0,0,61,26,0,0,0,0
06/11/94,23:45:00,4,31,0,0,0,0,0,62,26,0,0,0,0
06/11/94,23:50:00,3,47,21,0,0,0,0,61,26,0,0,0,0
06/11/94,23:55:00,29,45,0,0,0,0,0,61,26,0,0,0,0
06/12/94,00:00:00,11,53,1,0,0,0,0,62,26,0,0,0,0
